[[{"header":{"parameterUnit":"m.s-1","parameterCategory":1,"la1":30.2991,"la2":30.254,"lo1":-89.0895,"lo2":-89.0444,"dy":0.0017,"dx":0.0017,"nx":28,"ny":28,"refTime":"2025-06-13T03:00:00:Z","depth":0,"parameterNumber":2,"parameterNumberName":"U-component_of_WINDS"},"data":[0,0,0,0,0,0,0,0,0,0,0,0,0,0,0,0,0,0,0,0,0,0,0,0,0,0,0,0,0,0,0,0,0,0,0,0,0,0,0,0,0,0,0,0,0,0,0,0,0,0,0,0,0,0,0,0,0,0,0.2734,0.2734,0,0.2747,0.2747,0.2747,0.2746,0.2746,0.2745,0.2745,0.2757,0.2758,0.2758,0,0,0,0,0,0,0,0,0,0,0,0,0,0.2706,0.2707,0.2734,0.2734,0.2734,0.2747,0.2747,0.2747,0.2746,0.2746,0.2745,0.2745,0.2757,0.2758,0.2758,0,0,0,0,0,0,0,0,0,0,0,0,0,0.2719,0.2707,0.2734,0.2735,0.2735,0.2747,0.2747,0.2747,0.2746,0.2746,0.2745,0.2745,0.2757,0.2758,0.2758,0.2769,0,0,0.2761,0.2761,0,0,0,0,0,0,0,0,0.2718,0.272,0.2735,0.2735,0.2735,0.2744,0.2742,0.2754,0.2746,0.2742,0.2745,0.2745,0.2753,0.2754,0.2757,0.2769,0.277,0.2761,0.2761,0.2761,0.2762,0,0,0,0,0,0,0,0.2717,0.2719,0.2739,0.2735,0.2735,0.2734,0.2736,0.2744,0.2749,0.2742,0.2742,0.2744,0.2753,0.2756,0.2757,0.277,0.2761,0.2761,0.2762,0.2762,0.279,0.2791,0,0,0,0,0,0,0.2716,0.2718,0.2739,0.2739,0.2726,0.2735,0.2737,0.2742,0.2749,0.275,0.2744,0.2744,0.2755,0.2757,0.2758,0.277,0.2761,0.2762,0.2763,0.279,0.2791,0.2791,0,0,0,0,0,0,0.2716,0.2718,0.2738,0.2729,0.2731,0.2736,0.2742,0.2742,0.2746,0.275,0.2751,0.2747,0.2755,0.2757,0.2766,0.277,0.2762,0.2763,0.279,0.279,0.2791,0.2795,0,0,0,0,0,0,0.2715,0.2718,0.2722,0.2729,0.2732,0.2747,0.2742,0.2743,0.2747,0.2747,0.2753,0.2754,0.2755,0.2765,0.2767,0.2771,0.2764,0.2789,0.279,0.2791,0.2794,0.2795,0.2796,0,0,0,0,0,0.2714,0.2723,0.2723,0.2725,0.2738,0.2747,0.2748,0.275,0.2747,0.2752,0.2754,0.2753,0.277,0.2766,0.2768,0.2773,0.2789,0.279,0.279,0.2794,0.2795,0.2796,0,0,0,0,0,0,0.2716,0.2724,0.2724,0.2735,0.274,0.2747,0.2752,0.2752,0.2758,0.2757,0.2759,0.276,0.2769,0.2772,0.2767,0.2783,0.2779,0.278,0.2781,0.2782,0.2783,0.2782,0.2764,0,0,0,0,0,0.2718,0.2726,0.2732,0.2741,0.2744,0.2747,0.2752,0.2752,0.2758,0.276,0.2763,0.2768,0.2774,0.2778,0.2784,0.2795,0.2795,0.2799,0.28,0.28,0.2801,0.2806,0.2807,0.2793,0.2793,0.2793,0,0,0.2722,0.2727,0.2732,0.2742,0.2746,0.2753,0.2749,0.2757,0.2762,0.2761,0.277,0.2772,0.2778,0.2787,0.2792,0.279,0.2805,0.2801,0.2802,0.2802,0.2807,0.2808,0.2809,0.2794,0.2793,0.2793,0,0,0.2733,0.2738,0.2746,0.275,0.2757,0.2759,0.2761,0.2767,0.2769,0.2778,0.2777,0.2782,0.2793,0.2797,0.28,0.2811,0.281,0.2813,0.2818,0.2822,0.2823,0.2824,0.2828,0.2829,0.2814,0.2814,0.2814,0,0.2737,0.2748,0.275,0.2758,0.2761,0.2761,0.2769,0.2773,0.2781,0.2783,0.2781,0.2794,0.2798,0.2807,0.281,0.2813,0.2815,0.2812,0.2823,0.2824,0.2825,0.2828,0.2829,0.2814,0.2814,0.2814,0.2814,0,0.2752,0.2759,0.2765,0.2773,0.2777,0.2785,0.2787,0.2792,0.2792,0.2794,0.2803,0.2807,0.2814,0.2816,0.2817,0.2826,0.2824,0.2823,0.2819,0.2827,0.2829,0.2831,0.2814,0.2814,0.2814,0.2814,0,0,0.2765,0.2773,0.2775,0.2778,0.2785,0.279,0.2797,0.2804,0.2807,0.2812,0.2818,0.2826,0.2825,0.2828,0.2829,0.2833,0.2841,0.2831,0.2831,0.2832,0.285,0.2851,0.2852,0.284,0.2841,0.2841,0.285,0,0.2775,0.2788,0.279,0.2801,0.2807,0.2807,0.2813,0.2817,0.282,0.2825,0.2827,0.2833,0.2831,0.2833,0.2837,0.2839,0.2844,0.2838,0.2845,0.2845,0.2843,0.2854,0.2855,0.2863,0.2851,0.2851,0.2851,0,0.279,0.2795,0.2807,0.2812,0.2815,0.282,0.2826,0.2831,0.2835,0.2837,0.284,0.2841,0.2847,0.2843,0.2852,0.2848,0.285,0.2852,0.2852,0.2852,0.2848,0.2854,0.2866,0.2867,0.2853,0.2853,0.2853,0,0.2797,0.2807,0.2815,0.2818,0.2824,0.2828,0.2831,0.2835,0.2839,0.2843,0.2845,0.2851,0.2854,0.2858,0.2859,0.2856,0.2867,0.2864,0.2868,0.2868,0.287,0.287,0.2882,0.2873,0.2872,0.2872,0.2872,0,0.2808,0.2815,0.2818,0.2823,0.2831,0.2833,0.284,0.2842,0.2846,0.2851,0.2851,0.2856,0.2857,0.2862,0.2863,0.287,0.2871,0.2872,0.2872,0.2871,0.2871,0.2873,0.2872,0.2873,0.2873,0.2873,0.2873,0,0.2817,0.282,0.2828,0.2833,0.2835,0.284,0.2844,0.2849,0.2851,0.2857,0.2858,0.2861,0.2867,0.2868,0.2875,0.2876,0.2883,0.2883,0.2882,0.2881,0.2885,0.2884,0.2898,0.29,0.289,0.289,0.289,0,0.2824,0.2829,0.2835,0.2838,0.2841,0.2846,0.285,0.2852,0.2855,0.286,0.2864,0.2869,0.2874,0.2882,0.2885,0.289,0.2889,0.2894,0.289,0.2889,0.2888,0.2888,0.2888,0.2894,0.2894,0.2894,0.2894,0,0.2835,0.2836,0.2841,0.2847,0.2851,0.2855,0.2859,0.2862,0.2864,0.2868,0.2874,0.2877,0.2884,0.2889,0.2894,0.2896,0.2895,0.2896,0.2897,0.2896,0.2895,0.2895,0.2883,0.2895,0.2895,0.2895,0.2895,0.2895,0.2842,0.2847,0.2851,0.2857,0.286,0.2864,0.2868,0.2871,0.2875,0.2881,0.2882,0.2887,0.2891,0.2898,0.29,0.2904,0.2903,0.2905,0.2905,0.2905,0.2905,0.2895,0.2905,0.2905,0.2905,0.2905,0.2905,0,0.2853,0.2856,0.2861,0.2867,0.2871,0.2871,0.2875,0.2878,0.2883,0.2887,0.2891,0.2897,0.2902,0.2905,0.291,0.2912,0.2912,0.2914,0.2913,0.2913,0.2906,0.2905,0.2914,0.2914,0.2914,0.2914,0.2914,0.2914,0.2859,0.2866,0.2868,0.2876,0.2879,0.2884,0.2887,0.289,0.2893,0.29,0.2904,0.2906,0.2909,0.2914,0.2918,0.2918,0.292,0.2921,0.2922,0.2915,0.2914,0.2913,0.2912,0.2922,0.2922,0.2928,0.2928,0.2928]},{"header":{"parameterUnit":"m.s-1","parameterCategory":1,"la1":30.2991,"la2":30.254,"lo1":-89.0895,"lo2":-89.0444,"dy":0.0017,"dx":0.0017,"nx":28,"ny":28,"refTime":"2025-06-13T03:00:00:Z","depth":0,"parameterNumber":3,"parameterNumberName":"V-component_of_WINDS"},"data":[0,0,0,0,0,0,0,0,0,0,0,0,0,0,0,0,0,0,0,0,0,0,0,0,0,0,0,0,0,0,0,0,0,0,0,0,0,0,0,0,0,0,0,0,0,0,0,0,0,0,0,0,0,0,0,0,0,0,4.3901,4.3901,0,4.3869,4.3869,4.3869,4.3767,4.3765,4.3763,4.3761,4.3729,4.3731,4.3732,0,0,0,0,0,0,0,0,0,0,0,0,0,4.3873,4.3874,4.3901,4.3901,4.39,4.387,4.3869,4.3869,4.3768,4.3765,4.3762,4.376,4.3729,4.373,4.3732,0,0,0,0,0,0,0,0,0,0,0,0,0,4.3868,4.3874,4.3901,4.3846,4.3841,4.387,4.3869,4.3869,4.3768,4.3765,4.3762,4.3758,4.3728,4.373,4.3732,4.3812,0,0,4.3738,4.3739,0,0,0,0,0,0,0,0,4.3868,4.3869,4.3855,4.385,4.3844,4.3819,4.3847,4.385,4.3769,4.3796,4.3761,4.3757,4.3762,4.3761,4.3762,4.381,4.3809,4.3738,4.3739,4.374,4.3741,0,0,0,0,0,0,0,4.3869,4.387,4.3888,4.3855,4.3848,4.3823,4.3818,4.3847,4.3798,4.3793,4.3786,4.3784,4.3758,4.3761,4.3761,4.3808,4.3738,4.374,4.3741,4.3742,4.3917,4.392,0,0,0,0,0,0,4.3877,4.3871,4.3889,4.3887,4.3848,4.3826,4.3821,4.383,4.3798,4.379,4.3786,4.3779,4.3759,4.3759,4.3759,4.3848,4.374,4.3742,4.3743,4.3913,4.3918,4.3921,0,0,0,0,0,0,4.3877,4.3879,4.3891,4.3877,4.3876,4.383,4.3842,4.3832,4.3834,4.3793,4.3783,4.3798,4.3757,4.3757,4.3799,4.3846,4.3743,4.3744,4.3909,4.3915,4.392,4.4028,0,0,0,0,0,0,4.3876,4.388,4.391,4.3878,4.3878,4.3931,4.3844,4.3833,4.3837,4.3827,4.3801,4.3793,4.3754,4.3796,4.3801,4.3847,4.3746,4.3905,4.3912,4.3918,4.402,4.4037,4.4051,0,0,0,0,0,4.3876,4.3943,4.3912,4.3915,4.3914,4.3934,4.3934,4.3887,4.3842,4.3871,4.3844,4.3794,4.384,4.3802,4.3805,4.3853,4.3902,4.391,4.3917,4.4014,4.4033,4.405,0,0,0,0,0,0,4.3982,4.3938,4.3903,4.3962,4.3953,4.3917,4.3953,4.391,4.3913,4.3904,4.3845,4.384,4.389,4.3876,4.3833,4.3927,4.3862,4.3872,4.3934,4.3953,4.3968,4.397,4.3748,0,0,0,0,0,4.4013,4.4032,4.3992,4.4048,4.4045,4.4,4.4007,4.3972,4.3959,4.3955,4.3931,4.3921,4.3933,4.3942,4.3951,4.4018,4.401,4.4052,4.4067,4.408,4.4088,4.412,4.4138,4.3947,4.3947,4.3947,0,0,4.4076,4.4054,4.407,4.4069,4.4058,4.4079,4.3998,4.4024,4.4039,4.3959,4.3996,4.3979,4.3964,4.4018,4.4041,4.4007,4.4139,4.409,4.41,4.4102,4.413,4.4148,4.4164,4.3953,4.3952,4.3951,0,0,4.4201,4.4187,4.4231,4.422,4.4203,4.4172,4.4183,4.4154,4.4138,4.4175,4.4115,4.4132,4.4154,4.4145,4.4143,4.4263,4.4216,4.4268,4.4347,4.4378,4.4393,4.4406,4.4447,4.4463,4.4276,4.4276,4.4277,0,4.4282,4.4311,4.4259,4.4289,4.4289,4.4217,4.426,4.4253,4.424,4.4242,4.4205,4.4229,4.4215,4.4264,4.4293,4.4295,4.4304,4.427,4.4395,4.4408,4.4419,4.4458,4.4473,4.4283,4.4282,4.4281,4.4281,0,4.441,4.4431,4.4469,4.4457,4.4462,4.4498,4.4451,4.4462,4.4426,4.4399,4.4436,4.4415,4.4417,4.4427,4.4392,4.4471,4.4451,4.4406,4.434,4.4444,4.4479,4.4494,4.4291,4.4289,4.4287,4.4286,0,0,4.4603,4.456,4.4574,4.4567,4.4542,4.4557,4.459,4.4591,4.4601,4.4594,4.4619,4.4638,4.4595,4.4594,4.4557,4.4586,4.4679,4.4536,4.4535,4.4562,4.4763,4.4796,4.4814,4.4648,4.4651,4.4653,4.4763,0,4.472,4.4773,4.4726,4.4788,4.4805,4.4736,4.4764,4.4751,4.4727,4.4738,4.471,4.4724,4.4668,4.4666,4.4691,4.4663,4.4718,4.4654,4.467,4.4671,4.4675,4.4832,4.4868,4.4973,4.4777,4.4779,4.4781,0,4.4865,4.4863,4.4926,4.4894,4.49,4.4926,4.4922,4.4934,4.4918,4.4897,4.4895,4.485,4.4878,4.4814,4.4852,4.481,4.4813,4.48,4.4803,4.4802,4.4732,4.4834,4.5006,4.5021,4.4802,4.48,4.4799,0,4.4997,4.501,4.5049,4.5045,4.5009,4.5029,4.5015,4.4995,4.4998,4.4995,4.4996,4.4997,4.4997,4.4998,4.4954,4.4912,4.4997,4.493,4.498,4.4982,4.5001,4.5,4.5174,4.5006,4.5005,4.5005,4.5005,0,4.5132,4.5173,4.5107,4.5131,4.5174,4.5119,4.5164,4.5143,4.5125,4.5143,4.5083,4.5102,4.5043,4.5054,4.502,4.5056,4.5057,4.504,4.5031,4.5045,4.5047,4.5046,4.5037,4.5009,4.5008,4.5008,4.5007,0,4.5287,4.5245,4.5282,4.5245,4.5236,4.5269,4.5237,4.5257,4.5228,4.5251,4.5253,4.5207,4.5218,4.5174,4.5177,4.5154,4.5206,4.5185,4.5212,4.5205,4.5257,4.5252,4.5436,4.5456,4.5276,4.5278,4.5279,0,4.5376,4.5405,4.5371,4.5378,4.5367,4.538,4.5382,4.5328,4.5333,4.5315,4.5337,4.5342,4.5344,4.5363,4.533,4.5332,4.5309,4.5373,4.5309,4.5322,4.5308,4.5306,4.5308,4.5386,4.5389,4.5391,4.5392,0,4.5538,4.5514,4.552,4.5517,4.5521,4.5517,4.5509,4.5518,4.546,4.5468,4.5478,4.5479,4.5481,4.5486,4.548,4.5466,4.5419,4.5412,4.5424,4.5438,4.5452,4.5444,4.5247,4.5408,4.5407,4.5406,4.5405,4.5404,4.5661,4.5683,4.5661,4.5668,4.5656,4.5649,4.5665,4.5637,4.5643,4.564,4.5609,4.5624,4.5604,4.5591,4.5581,4.5591,4.5561,4.5578,4.5582,4.5587,4.5595,4.5451,4.5591,4.559,4.559,4.5589,4.5589,0,4.5818,4.58,4.5807,4.5796,4.5801,4.5756,4.5744,4.5751,4.5765,4.5751,4.5752,4.5762,4.5766,4.5733,4.5733,4.5747,4.5726,4.5749,4.5747,4.5744,4.5623,4.5613,4.5766,4.5766,4.5766,4.5766,4.5766,4.5766,4.59,4.5934,4.5908,4.5935,4.5916,4.593,4.5926,4.5919,4.5907,4.592,4.5923,4.5901,4.5878,4.5875,4.5877,4.5867,4.5869,4.5899,4.5882,4.577,4.5753,4.5736,4.5726,4.5901,4.5901,4.6001,4.6002,4.6003]}]]